Powrót do katalogu

DELTA 1 DEB

AktywnySSO
NORAD 10870·DEBRIS·🇺🇸 United States

Wystrzelony Jul 29, 1976 z Vandenberg Space Force Base

Loading…

Następne Przeloty (najbliższe 24 godziny)

TLE

ŚwieżeSource: Space-Track

Epoka: Sep 13, 2026, 10:05 UTC

1 10870U 76077CY  26256.42055461  .00000084  00000-0  85472-3 0  9992
2 10870 101.7394 236.9667 0020104  24.3717 130.0732 12.48972516274872

Śledź DELTA 1 DEB w czasie rzeczywistym z AllMySat

Download on the App Store